Weather History for Baltimore Martin, MD

Change the Weather History Date:

Wednesday, June 5, 2013

  Actual Average Record
Temperature  
Mean Temperature 66 °F -  
Max Temperature 78 °F 74 °F 84 °F (2002)
Min Temperature 55 °F 58 °F 50 °F (1997)
Cooling Degree Days 2    
Growing Degree Days 16 (Base 50)    
Moisture  
Dew Point 54 °F    
Average Humidity 69    
Maximum Humidity 94    
Minimum Humidity 36    
Precipitation  
Precipitation 0.00 in - - ()
Sea Level Pressure  
Sea Level Pressure 30.14 in    
Wind  
Wind Speed 3 mph (ESE)    
Max Wind Speed 14 mph    
Max Gust Speed -    
Visibility 10 miles    
Events      
Averages and records for this station are not official NWS values.
T = Trace of Precipitation, MM = Missing Value Source: NWS Daily Summary

Daily Weather History Graph

Daily Weather History Graph

Search for Another Location

Airport:

Trip Planner

Search our weather history database for the weather conditions in past years. The results will help you decide how hot, cold, wet, or windy it might be!

Date:

Astronomy

Jun. 05, 2013 Rise Set
Actual Time 5:39 AM EDT 8:29 PM EDT
Civil Twilight 5:07 AM EDT 9:01 PM EDT
Nautical Twilight 4:27 AM EDT 9:41 PM EDT
Astronomical Twilight 3:41 AM EDT 10:27 PM EDT
Moon 3:41 AM EDT (6/5) 5:54 PM EDT (6/5)
Length of Visible Light 15h 53m
Length of Day
14h 49m
Waning Crescent, 8% of the Moon is Illuminated
Jun 5
Waning Crescent
Jun 8
New
Jun 16
First Quarter
Jun 23
Full
Jun 30
Last Quarter

Hourly Weather History & Observations

Time (EDT) Temp. Dew Point Humidity Pressure Visibility Wind Dir Wind Speed Gust Speed Precip Events Conditions
12:18 AM 60.8 °F 53.6 °F 77% 30.13 in 10.0 mi Calm Calm - N/A   Clear
12:36 AM 60.8 °F 55.4 °F 82% 30.12 in 10.0 mi Calm Calm - N/A   Clear
12:57 AM 59.0 °F 55.4 °F 88% 30.12 in 10.0 mi Calm Calm - N/A   Clear
1:18 AM 59.0 °F 53.6 °F 82% 30.12 in 10.0 mi Calm Calm - N/A   Clear
1:36 AM 59.0 °F 53.6 °F 82% 30.13 in 10.0 mi Calm Calm - N/A   Clear
1:57 AM 59.0 °F 53.6 °F 82% 30.12 in 10.0 mi Calm Calm - N/A   Clear
2:18 AM 57.2 °F 53.6 °F 88% 30.12 in 10.0 mi Calm Calm - N/A   Clear
2:36 AM 57.2 °F 53.6 °F 88% 30.12 in 10.0 mi Calm Calm - N/A   Clear
2:57 AM 57.2 °F 53.6 °F 88% 30.12 in 10.0 mi Calm Calm - N/A   Clear
3:18 AM 57.2 °F 53.6 °F 88% 30.12 in 10.0 mi NW 3.5 mph - N/A   Clear
3:36 AM 55.4 °F 53.6 °F 94% 30.13 in 10.0 mi Calm Calm - N/A   Clear
3:57 AM 59.0 °F 53.6 °F 82% 30.14 in 10.0 mi Calm Calm - N/A   Clear
4:18 AM 59.0 °F 53.6 °F 82% 30.15 in 10.0 mi Calm Calm - N/A   Clear
4:36 AM 55.4 °F 53.6 °F 94% 30.15 in 10.0 mi NNW 3.5 mph - N/A   Clear
4:57 AM 57.2 °F 53.6 °F 88% 30.16 in 10.0 mi NNW 3.5 mph - N/A   Clear
5:18 AM 55.4 °F 51.8 °F 88% 30.17 in 10.0 mi Calm Calm - N/A   Clear
5:30 AM 55.4 °F 51.8 °F 88% 30.17 in 10.0 mi Calm Calm - N/A   Clear
5:50 AM 57.2 °F 53.6 °F 88% 30.18 in 10.0 mi Calm Calm - N/A   Scattered Clouds
6:45 AM 60.8 °F 55.4 °F 82% 30.19 in 10.0 mi Calm Calm - N/A   Scattered Clouds
7:54 AM 64.4 °F 53.6 °F 68% 30.20 in 10.0 mi NE 5.8 mph - N/A   Scattered Clouds
8:54 AM 68.0 °F 53.6 °F 60% 30.20 in 10.0 mi NE 6.9 mph - N/A   Scattered Clouds
9:54 AM 69.8 °F 51.8 °F 53% 30.20 in 10.0 mi ENE 6.9 mph - N/A   Scattered Clouds
10:45 AM 71.6 °F 48.2 °F 43% 30.20 in 10.0 mi East 6.9 mph - N/A   Partly Cloudy
11:54 AM 73.4 °F 50.0 °F 44% 30.18 in 10.0 mi East 6.9 mph - N/A   Partly Cloudy
12:54 PM 75.2 °F 50.0 °F 41% 30.16 in 10.0 mi East 6.9 mph - N/A   Partly Cloudy
1:45 PM 77.0 °F 48.2 °F 36% 30.15 in 10.0 mi SE 5.8 mph - N/A   Partly Cloudy
2:45 PM 78.8 °F 51.8 °F 39% 30.14 in 10.0 mi SE 6.9 mph - N/A   Partly Cloudy
3:45 PM 78.8 °F 51.8 °F 39% 30.13 in 10.0 mi ESE 6.9 mph - N/A   Partly Cloudy
4:45 PM 78.8 °F 51.8 °F 39% 30.12 in 10.0 mi South 3.5 mph - N/A   Partly Cloudy
5:45 PM 78.8 °F 51.8 °F 39% 30.12 in 10.0 mi SSW 4.6 mph - N/A   Scattered Clouds
6:45 PM 77.0 °F 53.6 °F 44% 30.10 in 10.0 mi SE 4.6 mph - N/A   Scattered Clouds
7:45 PM 73.4 °F 57.2 °F 57% 30.08 in 10.0 mi SE 6.9 mph - N/A   Scattered Clouds
8:45 PM 73.4 °F 57.2 °F 57% 30.08 in 10.0 mi SE 8.1 mph - N/A   Scattered Clouds
9:45 PM 71.6 °F 60.8 °F 69% 30.09 in 10.0 mi SSE 10.4 mph - N/A   Scattered Clouds
10:21 PM 71.6 °F 59.0 °F 64% 30.10 in 10.0 mi SSE 11.5 mph - N/A   Clear
10:39 PM 71.6 °F 59.0 °F 64% 30.10 in 10.0 mi SE 10.4 mph - N/A   Clear
11:00 PM 71.6 °F 59.0 °F 64% 30.10 in 10.0 mi SSE 11.5 mph - N/A   Clear
11:21 PM 71.6 °F 57.2 °F 60% 30.11 in 10.0 mi SSE 12.7 mph - N/A   Clear
11:39 PM 69.8 °F 57.2 °F 64% 30.11 in 10.0 mi SSE 13.8 mph - N/A   Clear